FWV3TG LYTV-LGSK

Flight info

Callsign FWV3TG
Flight time 0h 53m
Altitude 35000
Route LASTI DCT PETAK DCT DOBAR DCT TALAS UN130 TSL UL617 IBIDI
Aircraft B38M/M-SDE1FGHILORVWXY/HB1

Departure

Time 2026-05-05 17:30
Airport Tivat Airport (LYTV)

Arrival

Time 2026-05-05 18:23
Airport Skiathos Island National Airport (LGSK)
Time Latitude Longitude Altitude Speed Heading
2026-05-05 16:45 42.41207 18.71694 37 ft 0 kts 151°
2026-05-05 17:24 42.41199 18.71698 15 ft 3 kts 165°
2026-05-05 17:24 42.41162 18.71699 14 ft 7 kts 166°
2026-05-05 17:25 42.41115 18.71748 14 ft 10 kts 138°
2026-05-05 17:25 42.41097 18.71770 14 ft 11 kts 138°
2026-05-05 17:25 42.41016 18.71852 14 ft 7 kts 181°
2026-05-05 17:25 42.40970 18.71816 14 ft 9 kts 214°
2026-05-05 17:26 42.40934 18.71789 13 ft 9 kts 186°
2026-05-05 17:26 42.40854 18.71872 10 ft 15 kts 139°
2026-05-05 17:26 42.40754 18.71989 10 ft 22 kts 139°
2026-05-05 17:26 42.40629 18.72137 9 ft 26 kts 139°
2026-05-05 17:27 42.40482 18.72312 13 ft 30 kts 139°
2026-05-05 17:27 42.40324 18.72499 15 ft 31 kts 139°
2026-05-05 17:27 42.40216 18.72627 14 ft 32 kts 139°
2026-05-05 17:27 42.40044 18.72830 12 ft 34 kts 139°
2026-05-05 17:28 42.39862 18.73044 10 ft 36 kts 139°
2026-05-05 17:28 42.39686 18.73247 12 ft 15 kts 155°
2026-05-05 17:28 42.39621 18.73293 12 ft 4 kts 81°
2026-05-05 17:28 42.39633 18.73304 12 ft 4 kts 13°
2026-05-05 17:29 42.39656 18.73290 12 ft 0 kts 319°
2026-05-05 17:29 42.39779 18.73144 12 ft 66 kts 319°
2026-05-05 17:29 42.40339 18.72481 14 ft 145 kts 319°
2026-05-05 17:30 42.41551 18.71049 557 ft 187 kts 318°
2026-05-05 17:30 42.42460 18.69759 1472 ft 197 kts 303°
2026-05-05 17:30 42.42833 18.67905 2131 ft 222 kts 263°
2026-05-05 17:30 42.42181 18.66018 3024 ft 217 kts 217°
2026-05-05 17:31 42.41331 18.65356 3921 ft 216 kts 202°
2026-05-05 17:31 42.39938 18.64430 4154 ft 226 kts 208°
2026-05-05 17:31 42.38572 18.63341 4658 ft 225 kts 210°
2026-05-05 17:31 42.36818 18.61873 6164 ft 227 kts 211°
2026-05-05 17:32 42.35474 18.60710 7198 ft 228 kts 211°
2026-05-05 17:32 42.34138 18.59538 8247 ft 231 kts 212°
2026-05-05 17:32 42.33163 18.58845 8797 ft 240 kts 197°
2026-05-05 17:32 42.31501 18.58671 9670 ft 246 kts 174°
2026-05-05 17:33 42.29786 18.58935 10588 ft 252 kts 176°
2026-05-05 17:33 42.28006 18.59182 11333 ft 263 kts 176°
2026-05-05 17:33 42.26166 18.59454 12220 ft 268 kts 176°
2026-05-05 17:33 42.24286 18.59887 12940 ft 286 kts 163°
2026-05-05 17:34 42.22096 18.62070 13795 ft 313 kts 128°
2026-05-05 17:34 42.21307 18.63778 14243 ft 322 kts 121°
2026-05-05 17:34 42.20149 18.66372 14917 ft 330 kts 123°
2026-05-05 17:34 42.18942 18.69014 15813 ft 333 kts 123°
2026-05-05 17:35 42.17719 18.71698 16615 ft 338 kts 123°
2026-05-05 17:35 42.16482 18.74413 17444 ft 342 kts 122°
2026-05-05 17:35 42.15225 18.77169 18251 ft 347 kts 122°
2026-05-05 17:35 42.13954 18.79955 18955 ft 351 kts 123°
2026-05-05 17:36 42.12671 18.82766 19650 ft 354 kts 123°
2026-05-05 17:36 42.11370 18.85614 20309 ft 359 kts 123°
2026-05-05 17:36 42.10019 18.88459 20875 ft 366 kts 129°
2026-05-05 17:36 42.08226 18.90985 21060 ft 382 kts 138°
2026-05-05 17:37 42.06308 18.93493 21345 ft 396 kts 137°
2026-05-05 17:37 42.04321 18.96114 21897 ft 401 kts 137°
2026-05-05 17:37 42.02322 18.98756 22536 ft 405 kts 137°
2026-05-05 17:37 42.00297 19.01434 23105 ft 410 kts 137°
2026-05-05 17:38 41.98254 19.04134 23721 ft 414 kts 137°
2026-05-05 17:38 41.96191 19.06859 24194 ft 418 kts 137°
2026-05-05 17:38 41.94104 19.09612 24671 ft 423 kts 137°
2026-05-05 17:38 41.91996 19.12391 25143 ft 427 kts 137°
2026-05-05 17:39 41.89866 19.15197 25607 ft 431 kts 137°
2026-05-05 17:39 41.87749 19.17982 26064 ft 435 kts 137°
2026-05-05 17:39 41.85578 19.20836 26522 ft 439 kts 137°
2026-05-05 17:39 41.83387 19.23712 26957 ft 443 kts 137°
2026-05-05 17:40 41.81176 19.26613 27388 ft 447 kts 137°
2026-05-05 17:40 41.78949 19.29543 27822 ft 451 kts 135°
2026-05-05 17:40 41.77062 19.32919 28234 ft 456 kts 118°
2026-05-05 17:40 41.75637 19.36743 28566 ft 462 kts 117°
2026-05-05 17:41 41.74174 19.40603 28909 ft 467 kts 117°
2026-05-05 17:41 41.72714 19.44508 29376 ft 470 kts 116°
2026-05-05 17:41 41.71273 19.48390 29740 ft 474 kts 116°
2026-05-05 17:41 41.69805 19.52356 30178 ft 477 kts 116°
2026-05-05 17:42 41.68329 19.56345 30491 ft 481 kts 116°
2026-05-05 17:42 41.66838 19.60366 30836 ft 484 kts 116°
2026-05-05 17:42 41.65339 19.64407 31179 ft 487 kts 116°
2026-05-05 17:42 41.63827 19.68474 31507 ft 490 kts 116°
2026-05-05 17:43 41.62306 19.72561 31849 ft 493 kts 116°
2026-05-05 17:43 41.60773 19.76674 32191 ft 496 kts 116°
2026-05-05 17:43 41.59230 19.80812 32468 ft 500 kts 116°
2026-05-05 17:43 41.57693 19.84925 32815 ft 503 kts 116°
2026-05-05 17:44 41.56126 19.89111 33147 ft 506 kts 116°
2026-05-05 17:44 41.54548 19.93321 33426 ft 509 kts 116°
2026-05-05 17:44 41.52957 19.97561 33763 ft 512 kts 116°
2026-05-05 17:44 41.51357 20.01815 34065 ft 515 kts 116°
2026-05-05 17:45 41.49749 20.06089 34419 ft 515 kts 116°
2026-05-05 17:45 41.48143 20.10348 34863 ft 513 kts 116°
2026-05-05 17:45 41.46538 20.14596 35121 ft 514 kts 116°
2026-05-05 17:46 41.43358 20.22999 35114 ft 510 kts 116°
2026-05-05 17:46 41.40160 20.31426 35115 ft 510 kts 116°
2026-05-05 17:47 41.36953 20.39856 35100 ft 511 kts 116°
2026-05-05 17:47 41.33763 20.48312 35102 ft 511 kts 111°
2026-05-05 17:47 41.32752 20.52806 35091 ft 505 kts 98°
2026-05-05 17:48 41.31975 20.57315 35080 ft 509 kts 101°
2026-05-05 17:48 41.30327 20.66464 35125 ft 509 kts 100°
2026-05-05 17:49 41.28715 20.75627 35085 ft 508 kts 100°
2026-05-05 17:49 41.27104 20.84770 35099 ft 508 kts 100°
2026-05-05 17:50 41.25485 20.93911 35094 ft 508 kts 100°
2026-05-05 17:50 41.23871 21.02977 35076 ft 508 kts 99°
2026-05-05 17:51 41.22240 21.12098 35111 ft 508 kts 100°
2026-05-05 17:51 41.20600 21.21221 35047 ft 507 kts 99°
2026-05-05 17:52 41.18958 21.30319 35050 ft 507 kts 100°
2026-05-05 17:52 41.17319 21.39348 35047 ft 507 kts 100°
2026-05-05 17:53 41.15661 21.48438 35046 ft 507 kts 100°
2026-05-05 17:53 41.13995 21.57526 35047 ft 507 kts 100°
2026-05-05 17:54 41.12334 21.66550 35042 ft 507 kts 100°
2026-05-05 17:54 41.10655 21.75625 35048 ft 507 kts 100°
2026-05-05 17:55 41.08973 21.84689 35042 ft 505 kts 100°
2026-05-05 17:55 41.06536 21.93394 35025 ft 510 kts 123°
2026-05-05 17:56 41.02339 22.01012 35058 ft 511 kts 126°
2026-05-05 17:56 40.98066 22.08557 35028 ft 513 kts 126°
2026-05-05 17:57 40.93768 22.16090 35031 ft 510 kts 126°
2026-05-05 17:57 40.91473 22.19618 34806 ft 504 kts 139°
2026-05-05 17:57 40.88638 22.22157 34525 ft 498 kts 156°
2026-05-05 17:57 40.85565 22.24283 34306 ft 501 kts 149°
2026-05-05 17:58 40.82591 22.26721 34053 ft 503 kts 149°
2026-05-05 17:58 40.79625 22.29183 33737 ft 503 kts 149°
2026-05-05 17:58 40.76701 22.31633 33359 ft 494 kts 149°
2026-05-05 17:58 40.73812 22.34062 32810 ft 490 kts 149°
2026-05-05 17:59 40.70945 22.36475 32207 ft 489 kts 148°
2026-05-05 17:59 40.68079 22.38885 31598 ft 487 kts 148°
2026-05-05 17:59 40.65234 22.41274 31067 ft 484 kts 148°
2026-05-05 17:59 40.62404 22.43647 30558 ft 480 kts 148°
2026-05-05 18:00 40.59636 22.45967 30044 ft 476 kts 148°
2026-05-05 18:00 40.56850 22.48297 29414 ft 474 kts 148°
2026-05-05 18:00 40.54078 22.50614 28885 ft 470 kts 148°
2026-05-05 18:00 40.51333 22.52906 28381 ft 465 kts 148°
2026-05-05 18:01 40.48617 22.55172 27880 ft 461 kts 148°
2026-05-05 18:01 40.45921 22.57419 27369 ft 457 kts 148°
2026-05-05 18:01 40.43248 22.59645 26869 ft 453 kts 148°
2026-05-05 18:01 40.40595 22.61852 26383 ft 450 kts 148°
2026-05-05 18:02 40.37964 22.64040 25906 ft 446 kts 147°
2026-05-05 18:02 40.35351 22.66209 25433 ft 443 kts 147°
2026-05-05 18:02 40.32791 22.68334 24972 ft 440 kts 147°
2026-05-05 18:02 40.30209 22.70474 24506 ft 437 kts 147°
2026-05-05 18:03 40.27649 22.72594 24056 ft 434 kts 147°
2026-05-05 18:03 40.25103 22.74700 23610 ft 432 kts 147°
2026-05-05 18:03 40.22574 22.76791 23097 ft 429 kts 147°
2026-05-05 18:03 40.20065 22.78864 22651 ft 425 kts 147°
2026-05-05 18:04 40.17582 22.80912 22220 ft 420 kts 147°
2026-05-05 18:04 40.15118 22.82943 21793 ft 416 kts 147°
2026-05-05 18:04 40.12775 22.84873 21388 ft 413 kts 147°
2026-05-05 18:04 40.10358 22.86862 20987 ft 409 kts 147°
2026-05-05 18:05 40.07995 22.88805 20585 ft 405 kts 147°
2026-05-05 18:05 40.05619 22.90758 20178 ft 402 kts 147°
2026-05-05 18:05 40.03265 22.92690 19787 ft 399 kts 147°
2026-05-05 18:05 40.00928 22.94608 19392 ft 396 kts 147°
2026-05-05 18:06 39.98606 22.96511 18990 ft 393 kts 147°
2026-05-05 18:06 39.97080 22.97761 18742 ft 391 kts 147°
2026-05-05 18:06 39.94009 23.00275 18206 ft 388 kts 147°
2026-05-05 18:06 39.91733 23.02136 17768 ft 385 kts 147°
2026-05-05 18:07 39.89477 23.03979 17372 ft 381 kts 146°
2026-05-05 18:07 39.87269 23.05782 16983 ft 377 kts 146°
2026-05-05 18:07 39.85056 23.07587 16601 ft 374 kts 146°
2026-05-05 18:07 39.82867 23.09372 16222 ft 370 kts 146°
2026-05-05 18:08 39.80691 23.11144 15856 ft 367 kts 146°
2026-05-05 18:08 39.78537 23.12897 15470 ft 364 kts 146°
2026-05-05 18:08 39.76399 23.14636 15101 ft 361 kts 146°
2026-05-05 18:08 39.74274 23.16362 14725 ft 359 kts 146°
2026-05-05 18:09 39.72161 23.18078 14344 ft 357 kts 146°
2026-05-05 18:09 39.70059 23.19784 13965 ft 355 kts 146°
2026-05-05 18:09 39.67999 23.21456 13573 ft 353 kts 146°
2026-05-05 18:09 39.65923 23.23138 13179 ft 350 kts 146°
2026-05-05 18:10 39.63864 23.24806 12798 ft 347 kts 146°
2026-05-05 18:10 39.61826 23.26455 12437 ft 344 kts 147°
2026-05-05 18:10 39.59807 23.28087 12081 ft 340 kts 147°
2026-05-05 18:10 39.57808 23.29703 11723 ft 337 kts 147°
2026-05-05 18:11 39.55829 23.31301 11367 ft 334 kts 147°
2026-05-05 18:11 39.53865 23.32886 11014 ft 331 kts 147°
2026-05-05 18:11 39.51914 23.34460 10677 ft 328 kts 147°
2026-05-05 18:11 39.49997 23.36004 10486 ft 320 kts 147°
2026-05-05 18:12 39.48140 23.37500 10350 ft 310 kts 147°
2026-05-05 18:12 39.46358 23.38934 10220 ft 301 kts 147°
2026-05-05 18:12 39.44590 23.40356 10076 ft 300 kts 147°
2026-05-05 18:12 39.42808 23.41789 9781 ft 302 kts 147°
2026-05-05 18:13 39.41025 23.43222 9439 ft 302 kts 147°
2026-05-05 18:13 39.39242 23.44653 9103 ft 301 kts 147°
2026-05-05 18:13 39.37470 23.46076 8784 ft 299 kts 147°
2026-05-05 18:13 39.35712 23.47486 8465 ft 297 kts 147°
2026-05-05 18:14 39.33963 23.48888 8167 ft 295 kts 147°
2026-05-05 18:14 39.32226 23.50280 7861 ft 293 kts 147°
2026-05-05 18:14 39.30495 23.51666 7555 ft 292 kts 147°
2026-05-05 18:14 39.28769 23.53047 7251 ft 291 kts 147°
2026-05-05 18:15 39.27079 23.54398 7002 ft 287 kts 147°
2026-05-05 18:15 39.25420 23.55725 6901 ft 274 kts 147°
2026-05-05 18:15 39.23827 23.56997 6772 ft 265 kts 147°
2026-05-05 18:15 39.22279 23.58233 6623 ft 258 kts 147°
2026-05-05 18:16 39.20771 23.59436 6478 ft 253 kts 147°
2026-05-05 18:16 39.19266 23.60598 6311 ft 252 kts 153°
2026-05-05 18:16 39.17558 23.60997 5986 ft 253 kts 187°
2026-05-05 18:16 39.15926 23.60239 5680 ft 249 kts 208°
2026-05-05 18:17 39.14396 23.59217 5420 ft 247 kts 208°
2026-05-05 18:17 39.12869 23.58208 5112 ft 246 kts 208°
2026-05-05 18:17 39.11343 23.57205 4802 ft 246 kts 208°
2026-05-05 18:17 39.09866 23.56238 4514 ft 238 kts 207°
2026-05-05 18:18 39.08412 23.55289 4214 ft 231 kts 207°
2026-05-05 18:18 39.07002 23.54368 3957 ft 223 kts 207°
2026-05-05 18:18 39.05659 23.53492 3808 ft 210 kts 207°
2026-05-05 18:18 39.04410 23.52678 3705 ft 193 kts 207°
2026-05-05 18:19 39.03253 23.51914 3493 ft 183 kts 211°
2026-05-05 18:19 39.02413 23.50746 3112 ft 179 kts 249°
2026-05-05 18:19 39.02298 23.49197 2743 ft 175 kts 284°
2026-05-05 18:19 39.02895 23.47863 2366 ft 174 kts 315°
2026-05-05 18:20 39.03916 23.47053 1878 ft 174 kts 342°
2026-05-05 18:20 39.05050 23.46935 1635 ft 154 kts
2026-05-05 18:20 39.06054 23.47111 1635 ft 144 kts
2026-05-05 18:20 39.07044 23.47278 1629 ft 143 kts
2026-05-05 18:21 39.08021 23.47503 1618 ft 143 kts 13°
2026-05-05 18:21 39.08995 23.47785 1612 ft 145 kts 14°
2026-05-05 18:21 39.09999 23.48020 1460 ft 145 kts
2026-05-05 18:21 39.10994 23.47996 1231 ft 143 kts 357°
2026-05-05 18:22 39.11997 23.47930 1009 ft 148 kts
2026-05-05 18:22 39.13014 23.48148 789 ft 148 kts 19°
2026-05-05 18:22 39.13944 23.48663 623 ft 144 kts 28°
2026-05-05 18:22 39.14867 23.49131 426 ft 142 kts 17°
2026-05-05 18:23 39.15819 23.49531 257 ft 145 kts 19°
2026-05-05 18:23 39.16771 23.49951 94 ft 143 kts 19°
2026-05-05 18:23 39.17626 23.50330 44 ft 102 kts 19°
2026-05-05 18:23 39.18087 23.50535 51 ft 43 kts 19°
2026-05-05 18:24 39.18317 23.50638 53 ft 20 kts 19°
2026-05-05 18:24 39.18433 23.50690 63 ft 17 kts 19°
2026-05-05 18:24 39.18521 23.50709 63 ft 8 kts 56°
2026-05-05 18:24 39.18518 23.50726 60 ft 1 kts 141°
2026-05-05 18:25 39.18496 23.50718 58 ft 10 kts 199°
2026-05-05 18:25 39.18440 23.50694 63 ft 15 kts 200°
2026-05-05 18:25 39.18279 23.50620 60 ft 21 kts 199°
2026-05-05 18:25 39.18126 23.50553 53 ft 23 kts 198°
2026-05-05 18:26 39.17988 23.50489 48 ft 17 kts 198°
2026-05-05 18:26 39.17929 23.50401 44 ft 10 kts 249°
2026-05-05 18:26 39.17891 23.50328 42 ft 8 kts 201°
2026-05-05 18:26 39.17828 23.50300 42 ft 10 kts 199°
2026-05-05 18:27 39.17785 23.50268 42 ft 3 kts 262°
2026-05-05 18:27 39.17790 23.50234 42 ft 5 kts 289°
2026-05-05 18:27 39.17799 23.50198 42 ft 3 kts 288°
2026-05-05 18:27 39.17800 23.50195 42 ft 0 kts 288°